User: anonymous   Login
Location: Riverside
(39.1734°N, 77.8561°W)
Time: 12:30:54
(UTC+00:00)
Language:

BEESAT 3 - Orbit

View from above orbital plane
View from above orbital plane
View from above satellite
View from above satellite

Ground track
Ground track

The orbit data is extracted from the following two-line orbital elements,

1 39134U 13015E   19289.47937614 +.00001114 +00000-0 +59525-4 0  9997
2 39134 064.8643 352.2854 0037182 283.4185 076.2800 15.20398050358422
Epoch (UTC): 16 October 2019 11:30:18
Eccentricity: 0.0037182
inclination: 64.8643°
perigee height: 479 km
apogee height: 530 km
right ascension of ascending node: 352.2854°
argument of perigee: 283.4185°
revolutions per day: 15.20398050
mean anomaly at epoch: 76.2800°
orbit number at epoch: 35842

The dashed part of the orbit path shows where the satellite is in the earth's shadow,  

DLR